Location: Rancho Del Sol Observatory
(38.7214°N, 120.6350°W)
Time: 23:59:27
(UTC-08:00)

Daily predictions for brighter satellites

Satellite Brightness Start Highest point End
(mag) Time Altitude Azimuth Time Altitude Azimuth Time Altitude Azimuth
BREEZE-M DEB (TANK) 3.4 17:26:05 10° WNW 17:28:48 64° SW 17:35:57 10° SE
Cosmos 2333 4.3 17:26:42 10° SSW 17:32:19 85° WNW 17:37:57 10° NNE
OTV 4 0.7 17:34:09 10° W 17:37:06 67° S 17:40:02 10° ESE
Cosmos 2360 Rocket 3.9 17:33:09 10° WSW 17:38:02 30° WNW 17:42:57 10° N
Cosmos 2084 3.2 17:35:16 10° SSW 17:39:10 67° ESE 17:42:57 10° NE
Cosmos 1980 4.1 17:34:54 10° S 17:40:17 46° ESE 17:45:41 10° NE
NOSS 0 Rocket 4.2 17:34:42 10° S 17:40:43 53° ESE 17:46:45 10° NNE
Meteor 2-2 Rocket 4.2 17:35:39 10° N 17:41:16 67° E 17:46:53 10° SSE
Cosmos 540 Rocket 3.9 17:38:43 10° S 17:43:33 42° ESE 17:48:23 10° NNE
Cosmos 44 3.7 17:41:09 10° S 17:46:15 51° ESE 17:51:12 10° NE
ALOS 4.1 17:46:48 10° ENE 17:48:05 11° ENE 17:49:21 10° NE
Milstar 3 4.1 17:43:37 10° WSW 17:49:50 33° S 17:55:56 10° SE
CORIOLIS 4.4 17:46:46 10° S 17:52:06 78° WSW 17:57:29 10° NNW
Cosmos 2333 Rocket 2.2 17:49:28 10° SSW 17:55:05 75° ESE 18:00:44 10° NNE
Resurs 01 Rocket 3.4 17:55:06 11° ENE 17:55:24 11° ENE 17:56:52 10° NE
YAOGAN 1 3.2 17:53:25 10° S 17:57:42 61° W 18:02:00 10° NNW
USA 215 3.6 17:51:45 10° ESE 17:57:53 44° NNE 18:04:00 10° NW
COSMO-SKYMED 1 2.6 17:54:08 10° NNE 17:58:26 60° E 18:02:43 10° S
Cosmos 371 Rocket 3.3 17:53:43 10° SSW 17:58:31 88° WNW 18:03:22 10° NNE
Cosmos 2058 3.4 17:55:45 10° SSE 17:59:33 38° E 18:03:22 10° NNE
FREGAT/IRIS 4.5 18:00:43 10° ESE 18:04:45 - NNE 18:01:44 14° E
Cosmos 2219 Rocket 2.5 17:58:31 10° SSW 18:04:08 72° WNW 18:09:47 10° NNE
Haruka 4.2 18:01:44 10° SW 18:05:19 38° SSE 18:13:50 11° E
Atlas Centaur 2 4.2 18:03:45 10° WSW 18:06:55 16° SSW 18:09:44 10° S
SMAP 4.5 18:03:21 10° S 18:07:45 42° W 18:12:11 10° NNW
Cosmos 1626 3.5 18:05:20 10° SE 18:08:00 19° E 18:08:48 17° ENE
SPOT 3 Rocket 4.5 18:03:07 10° S 18:08:07 52° W 18:13:10 10° NNW
Cosmos 2228 Rocket 4.1 18:04:25 10° NNW 18:08:41 50° W 18:12:58 10° SSW
Thor Agena Rocket 4.4 18:03:45 10° N 18:08:51 54° WNW 18:13:52 10° SSW
Cosmos 1125 Rocket 3.4 18:04:10 10° NNW 18:09:22 71° ENE 18:14:32 10° SSE
Cosmos 1340 Rocket 3.2 18:08:51 10° SSE 18:12:34 41° E 18:16:16 10° NNE
Cosmos 2278 Rocket 2.2 18:07:25 10° NNW 18:13:05 64° ENE 18:18:41 10° SSE
Meteor 1-27 4.3 18:11:29 10° N 18:17:14 60° ENE 18:22:59 10° SSE
SL-14 R/B 3.2 18:14:38 10° S 18:18:32 87° W 18:22:32 10° N
Cosmos 44 Rocket 4.1 18:13:51 10° SW 18:18:51 52° NW 18:23:48 10° NNE
NOAA 12 4.2 18:15:39 10° SSE 18:20:42 52° ENE 18:25:48 10° N
Cosmos 2279 Rocket 3.9 18:15:42 10° N 18:21:54 65° E 18:28:04 10° SSE
Cosmos 1356 Rocket 4.2 18:19:23 10° SSE 18:22:48 28° E 18:23:49 24° ENE
Cosmos 1484 Rocket 3.6 18:19:04 10° S 18:22:54 56° W 18:26:49 10° NNW
Cosmos 1844 4.4 18:19:05 10° NNW 18:24:46 59° WSW 18:30:25 10° S
Cosmos 1726 2.5 18:22:19 10° NNW 18:26:03 67° W 18:29:48 10° S
Lacrosse 5 4.2 18:28:14 10° NNW 18:29:15 11° NNW 18:30:16 10° N
Cosmos 1300 3.2 18:26:48 10° NNW 18:30:35 61° W 18:34:21 10° S
Cosmos 2151 3.5 18:27:08 10° SSW 18:31:18 61° W 18:35:28 10° N
H-2A ROCKET BODY 4.1 18:03:50 10° WSW 18:33:51 47° S 18:39:02 16° ESE
Cosmos 2237 Rocket 2.6 18:30:54 10° SSW 18:36:28 65° WNW 18:42:06 10° NNE
Aureole 2 Rocket 2.7 18:34:36 10° SSW 18:38:12 78° WNW 18:41:14 16° NNE
CENTAUR R/B 4.2 18:33:58 10° W 18:39:11 27° NW 18:44:57 10° NNE
Nadezhda 4 Rocket 4.1 18:34:42 10° SSE 18:40:42 51° E 18:46:46 10° NNE
Cosmos 304 Rocket 3.6 18:37:04 10° S 18:41:52 74° ESE 18:45:19 19° NNE
SL-16 R/B 2.2 18:36:23 10° S 18:41:55 59° ESE 18:45:34 22° NE
Cosmos 2180 Rocket 4.4 18:36:11 10° N 18:42:23 79° E 18:48:35 10° S
Abrixas 2.5 18:39:34 10° WSW 18:42:28 62° NNW 18:42:45 57° N
Aureole 1 Rocket 4.3 18:38:53 10° SSE 18:43:19 32° E 18:44:10 31° ENE
Iridium 4 Rocket 4.3 18:40:22 10° SSE 18:43:01 26° ESE 18:43:01 26° ESE
Cosmos 1805 Rocket 3.5 18:43:42 10° S 18:48:09 86° E 18:52:38 10° N
Lacrosse 5 rocket 1.1 18:47:34 10° NW 18:51:23 66° NE 18:51:53 58° E
Timation 1 Rocket 4.2 18:46:58 10° NNW 18:53:00 72° ENE 18:58:59 10° SSE
Cosmos 2297 3.6 18:47:45 10° NNW 18:53:27 64° ENE 18:59:06 10° SSE
Cosmos 1092 Rocket 4.1 18:53:02 10° SSE 18:59:06 52° E 19:05:05 11° NNE
BREEZE-M DEB (TANK) 3.8 19:04:24 10° W 19:05:55 27° WNW 19:05:55 27° WNW
Sich 1 3.0 19:05:17 10° S 19:09:43 85° W 19:11:18 40° N
OTV 4 2.8 19:10:29 10° W 19:12:19 21° SW 19:12:19 21° SW
Cosmos 773 Rocket 3.9 19:08:44 10° S 19:13:43 63° ESE 19:13:43 63° ESE
Cosmos 1633 Rocket 3.0 19:10:01 10° S 19:14:25 86° W 19:14:59 68° N
SJ-6B 4.1 19:14:45 10° S 19:18:36 42° W 19:22:32 10° NNW
ALOS 2.3 19:20:12 10° S 19:24:51 76° WSW 19:29:32 10° NNW
CZ-3A R/B 2.7 19:20:26 10° NW 19:25:00 80° NE 19:26:01 59° ESE
FengYun 1-2 T 4.3 19:19:53 10° S 19:25:28 78° WSW 19:31:01 10° NNW
FENGYUN 3A 3.6 19:22:17 10° S 19:27:38 79° WSW 19:33:02 10° NNW
Resurs 01 Rocket 2.5 19:32:40 42° NW 19:32:40 42° NW 19:35:43 10° NNW
Cosmos 1461 3.9 19:27:33 10° SW 19:31:20 43° WNW 19:31:20 43° WNW
USA 215 3.7 19:36:43 24° SSE 19:40:44 56° SW 19:47:10 10° NW
Cosmos 1626 4.4 19:40:10 10° SW 19:43:12 23° WNW 19:43:34 23° WNW
USA 229 DEB 4.4 20:18:50 10° SW 20:24:31 50° W 20:24:31 50° W
USA 229 4.4 20:18:56 10° SW 20:24:33 50° W 20:24:33 50° W
SL-16 R/B 4.3 20:22:21 10° W 20:26:26 20° NW 20:27:31 19° NW
